Location: Ełk
(53.8214°N, 22.3622°E)
Time: 21:46:12
(UTC+01:00)

ISS - Pass Details

Date: 26 January 2019
Orbit: 403 x 411 km, 51.6° (Epoch: 16 February)

Event Time Altitude Azimuth Distance (km) Brightness Sun altitude
Rises 19:14:57 0° 253° (WSW) 2,336 1.0 -28.4°
Reaches altitude 10° 19:17:03 10° 248° (WSW) 1,478 -0.3 -28.8°
Enters shadow 19:17:36 14° 246° (WSW) 1,262 -0.7 -28.8°
